Weather History for Watford City, ND

Change the Weather History Date:

Friday, January 11, 2013

  Actual Average (KISN) Record (KISN)
Temperature  
Mean Temperature 10 °F 10 °F  
Max Temperature 19 °F 21 °F 50 °F (1958)
Min Temperature 1 °F 1 °F -42 °F (1912)
Degree Days  
Heating Degree Days 55 55  
Month to date heating degree days 602  
Since 1 July heating degree days 4349  
Cooling Degree Days 0 0  
Month to date cooling degree days 0  
Year to date cooling degree days 0  
Moisture  
Dew Point 7 °F    
Average Humidity 87    
Maximum Humidity 100    
Minimum Humidity 78    
Precipitation  
Precipitation 3.21 in 0.02 in 0.51 in (1988)
Month to date precipitation 0.24  
Year to date precipitation 0.24  
Sea Level Pressure  
Sea Level Pressure 29.71 in    
Wind  
Wind Speed 16 mph (North)    
Max Wind Speed 25 mph    
Max Gust Speed 31 mph    
Visibility 4 miles    
Events Rain , Snow    
T = Trace of Precipitation, MM = Missing Value Source: NWS Daily Summary

Daily Weather History Graph

Daily Weather History Graph

Search for Another Location

Airport:

Trip Planner

Search our weather history database for the weather conditions in past years. The results will help you decide how hot, cold, wet, or windy it might be!

Date:

Astronomy

Jan. 11, 2013 Rise Set
Actual Time 8:39 AM CST 5:23 PM CST
Civil Twilight 8:04 AM CST 5:58 PM CST
Nautical Twilight 7:25 AM CST 6:37 PM CST
Astronomical Twilight 6:48 AM CST 7:14 PM CST
Moon 8:10 AM CST (1/11) 5:48 PM CST (1/11)
Length of Visible Light 9h 54m
Length of Day
8h 43m
Waning Crescent, 0% of the Moon is Illuminated
Jan 11
Waning Crescent
Jan 11
New
Jan 18
First Quarter
Jan 26
Full
Feb 3
Last Quarter

Hourly Weather History & Observations

Time (CST) Temp. Windchill Dew Point Humidity Pressure Visibility Wind Dir Wind Speed Gust Speed Precip Events Conditions
12:15 AM 19.4 °F 4.5 °F 17.6 °F 93% 29.57 in 7.0 mi North 17.3 mph - N/A   Overcast
12:35 AM 17.6 °F 1.7 °F 15.8 °F 93% 29.57 in 8.0 mi North 18.4 mph 24.2 mph N/A   Overcast
12:55 AM 17.6 °F 3.7 °F 15.8 °F 93% 29.59 in 9.0 mi NNE 13.8 mph - N/A   Overcast
1:15 AM 17.6 °F 3.2 °F 15.8 °F 93% 29.60 in 10.0 mi North 15.0 mph - N/A   Overcast
1:35 AM 15.8 °F -0.2 °F 14.0 °F 93% 29.61 in 9.0 mi North 17.3 mph - N/A   Overcast
1:55 AM 15.8 °F 1.4 °F 15.8 °F 100% 29.61 in 3.0 mi NNE 13.8 mph - N/A   Overcast
2:15 AM 15.8 °F 2.7 °F 15.8 °F 100% 29.62 in 2.5 mi North 11.5 mph - N/A Rain Light Freezing Rain
2:35 AM 15.8 °F 1.4 °F 15.8 °F 100% 29.62 in 2.5 mi NNE 13.8 mph - N/A Rain Light Freezing Rain
2:55 AM 15.8 °F 0.9 °F 15.8 °F 100% 29.62 in 2.5 mi North 15.0 mph - N/A Rain Light Freezing Rain
3:15 AM 15.8 °F 0.9 °F 14.0 °F 93% 29.63 in 3.0 mi North 15.0 mph - N/A   Overcast
3:35 AM 14.0 °F -2.0 °F 14.0 °F 100% 29.63 in 4.0 mi North 16.1 mph - N/A   Overcast
3:55 AM 14.0 °F -1.4 °F 14.0 °F 100% 29.63 in 4.0 mi North 15.0 mph - N/A   Overcast
4:15 AM 14.0 °F -0.2 °F 12.2 °F 93% 29.63 in 5.0 mi North 12.7 mph - N/A Rain Light Freezing Rain
4:35 AM 14.0 °F -1.4 °F 10.4 °F 86% 29.63 in 7.0 mi NNE 15.0 mph - N/A   Overcast
4:55 AM 14.0 °F -0.8 °F 10.4 °F 86% 29.63 in 10.0 mi North 13.8 mph - N/A   Overcast
5:15 AM 14.0 °F -0.8 °F 10.4 °F 86% 29.62 in 8.0 mi NNE 13.8 mph - N/A Snow Light Snow
5:35 AM 14.0 °F -0.2 °F 10.4 °F 86% 29.62 in 8.0 mi NNE 12.7 mph - N/A Rain Light Freezing Rain
5:55 AM 14.0 °F -0.8 °F 10.4 °F 86% 29.62 in 10.0 mi NNE 13.8 mph - N/A Snow Light Snow
6:15 AM 14.0 °F -0.2 °F 10.4 °F 86% 29.62 in 10.0 mi NNE 12.7 mph - N/A Rain Light Freezing Rain
6:35 AM 14.0 °F 1.2 °F 10.4 °F 86% 29.63 in 10.0 mi NNE 10.4 mph - N/A Rain Light Freezing Rain
6:55 AM 14.0 °F 1.2 °F 10.4 °F 86% 29.64 in 7.0 mi North 10.4 mph - N/A Snow Light Snow
7:15 AM 12.2 °F -3.1 °F 8.6 °F 85% 29.65 in 5.0 mi North 13.8 mph - N/A Snow Light Snow
7:35 AM 12.2 °F -2.5 °F 8.6 °F 85% 29.63 in 8.0 mi NNE 12.7 mph - 0.01 in Snow Light Snow
7:55 AM 12.2 °F -2.5 °F 8.6 °F 85% 29.66 in 3.0 mi North 12.7 mph - 0.02 in Snow Light Snow
8:15 AM 12.2 °F -0.2 °F 8.6 °F 85% 29.68 in 6.0 mi NNE 9.2 mph - N/A Snow Light Snow
8:35 AM 10.4 °F -1.5 °F 8.6 °F 92% 29.68 in 3.0 mi NNE 8.1 mph - 0.01 in Snow Light Snow
8:55 AM 10.4 °F -3.3 °F 8.6 °F 92% 29.67 in 4.0 mi NNE 10.4 mph - 0.03 in Snow Light Snow
9:15 AM 10.4 °F -6.6 °F 8.6 °F 92% 29.67 in 5.0 mi North 16.1 mph - N/A Snow Light Snow
9:35 AM 10.4 °F -6.0 °F 6.8 °F 85% 29.67 in 8.0 mi NNE 15.0 mph - 0.01 in Snow Light Snow
9:55 AM 10.4 °F -5.4 °F 6.8 °F 85% 29.66 in 5.0 mi NNE 13.8 mph - 0.01 in Snow Light Snow
10:15 AM 10.4 °F -4.1 °F 6.8 °F 85% 29.68 in 4.0 mi NNE 11.5 mph - N/A Snow Light Snow
10:35 AM 10.4 °F -3.3 °F 6.8 °F 85% 29.67 in 5.0 mi North 10.4 mph - 0.01 in Snow Light Snow
10:55 AM 10.4 °F -6.6 °F 8.6 °F 92% 29.67 in 4.0 mi NNE 16.1 mph - 0.03 in Snow Light Snow
11:15 AM 10.4 °F -5.4 °F 6.8 °F 85% 29.72 in 5.0 mi NNE 13.8 mph - N/A Snow Light Snow
11:35 AM 10.4 °F -3.3 °F 6.8 °F 85% 29.71 in 2.5 mi NNE 10.4 mph - 0.03 in Snow Light Snow
11:55 AM 10.4 °F -1.5 °F 6.8 °F 85% 29.70 in 3.0 mi North 8.1 mph - 0.06 in Snow Light Snow
12:15 PM 10.4 °F -2.4 °F 8.6 °F 92% 29.70 in 2.5 mi North 9.2 mph - 0.01 in Snow Light Snow
12:35 PM 10.4 °F -5.4 °F 8.6 °F 92% 29.70 in 1.5 mi North 13.8 mph - 0.05 in Snow Light Snow
12:55 PM 10.4 °F -6.6 °F 6.8 °F 85% 29.69 in 2.0 mi North 16.1 mph - 0.06 in Snow Light Snow
1:15 PM 10.4 °F -5.4 °F 6.8 °F 85% 29.70 in 2.5 mi North 13.8 mph - 0.01 in Snow Light Snow
1:35 PM 10.4 °F -5.4 °F 6.8 °F 85% 29.70 in 2.5 mi NNE 13.8 mph - 0.02 in Snow Light Snow
1:55 PM 10.4 °F -6.6 °F 6.8 °F 85% 29.70 in 3.0 mi North 16.1 mph - 0.03 in Snow Light Snow
2:15 PM 10.4 °F -6.0 °F 6.8 °F 85% 29.70 in 1.8 mi NNE 15.0 mph - N/A Snow Light Snow
2:35 PM 10.4 °F -6.6 °F 6.8 °F 85% 29.71 in 2.5 mi North 16.1 mph - 0.02 in Snow Light Snow
2:55 PM 10.4 °F -8.2 °F 6.8 °F 85% 29.71 in 1.5 mi North 19.6 mph - 0.03 in Snow Light Snow
3:15 PM 10.4 °F -7.7 °F 6.8 °F 85% 29.71 in 2.5 mi North 18.4 mph 24.2 mph N/A Rain Light Freezing Rain
3:35 PM 10.4 °F -8.6 °F 6.8 °F 85% 29.72 in 1.0 mi North 20.7 mph 27.6 mph 0.03 in Snow Light Snow
3:55 PM 8.6 °F -11.4 °F 5.0 °F 85% 29.74 in 1.0 mi North 21.9 mph 27.6 mph 0.04 in Snow Light Snow
4:15 PM 8.6 °F -10.5 °F 5.0 °F 85% 29.74 in 1.0 mi NNW 19.6 mph - 0.03 in Snow Light Snow
4:35 PM 6.8 °F -14.3 °F 3.2 °F 85% 29.73 in 0.5 mi North 23.0 mph 27.6 mph 0.11 in Snow Snow
4:55 PM 6.8 °F -14.3 °F 3.2 °F 85% 29.75 in 1.2 mi NNW 23.0 mph 27.6 mph 0.27 in Snow Light Snow
5:15 PM 6.8 °F -14.3 °F 1.4 °F 79% 29.75 in 0.8 mi North 23.0 mph 27.6 mph 0.11 in Snow Light Snow
5:35 PM 6.8 °F -14.7 °F 1.4 °F 79% 29.76 in 1.2 mi North 24.2 mph 27.6 mph 0.21 in Snow Light Snow
5:55 PM 5.0 °F -17.5 °F 1.4 °F 85% 29.77 in 1.8 mi North 25.3 mph 31.1 mph 0.29 in Snow Light Snow
6:15 PM 5.0 °F -16.7 °F 1.4 °F 85% 29.77 in 2.0 mi North 23.0 mph 31.1 mph 0.03 in Snow Light Snow
6:35 PM 5.0 °F -16.2 °F 1.4 °F 85% 29.79 in 3.0 mi North 21.9 mph - 0.06 in Snow Light Snow
6:55 PM 5.0 °F -16.2 °F 1.4 °F 85% 29.80 in 3.0 mi North 21.9 mph 25.3 mph 0.08 in Snow Light Snow
7:15 PM 5.0 °F -14.2 °F 1.4 °F 85% 29.81 in 3.0 mi North 17.3 mph 23.0 mph 0.01 in Snow Light Snow
7:35 PM 5.0 °F -14.2 °F 1.4 °F 85% 29.82 in 2.5 mi North 17.3 mph 23.0 mph 0.04 in Snow Light Snow
7:55 PM 5.0 °F -14.7 °F -0.4 °F 78% 29.83 in 1.8 mi North 18.4 mph 25.3 mph 0.12 in Snow Light Snow
8:15 PM 5.0 °F -14.7 °F -0.4 °F 78% 29.83 in 1.5 mi North 18.4 mph 24.2 mph 0.13 in Snow Light Snow
8:35 PM 5.0 °F -15.7 °F -0.4 °F 78% 29.84 in 1.0 mi North 20.7 mph 29.9 mph 0.54 in Snow Light Snow
9:15 PM 3.2 °F -19.0 °F -0.4 °F 85% 29.85 in 1.0 mi NNW 23.0 mph 28.8 mph 0.61 in Snow Light Snow
9:35 PM 3.2 °F -17.1 °F -0.4 °F 85% 29.85 in 1.0 mi NNW 18.4 mph 29.9 mph 1.16 in Snow Light Snow
9:55 PM 3.2 °F -17.6 °F -0.4 °F 85% 29.85 in 1.8 mi North 19.6 mph 25.3 mph 1.50 in Snow Light Snow
10:15 PM 3.2 °F -18.6 °F -0.4 °F 85% 29.85 in 3.0 mi North 21.9 mph 26.5 mph 0.03 in Snow Light Snow
10:35 PM 3.2 °F -19.0 °F -0.4 °F 85% 29.86 in 4.0 mi North 23.0 mph - 0.04 in Rain Light Freezing Rain
10:55 PM 1.4 °F -21.0 °F -0.4 °F 92% 29.87 in 3.0 mi NNW 21.9 mph - 0.05 in Snow Light Snow
11:15 PM 1.4 °F -20.5 °F -2.2 °F 85% 29.88 in 1.8 mi North 20.7 mph 28.8 mph 0.02 in Snow Light Snow
11:35 PM 1.4 °F -19.4 °F -2.2 °F 85% 29.89 in 1.8 mi North 18.4 mph 27.6 mph 0.05 in Snow Light Snow